This is the latest recevied weather packets stored in our database for station/object SP1BMW-13. If no packets are shown the sender has not sent any weather packets the latest 10 day(s).
| Time | Temp. | Humidity | Pressure | Rain* | Wind** | Luminosity | Snow |
|---|---|---|---|---|---|---|---|
| 1778071673 | 9.44° C | 93% | 1006.4 hPa | 0.51 mm | 0.89 m/s, 40° | 93 W/m² | - |
| 1778071612 | 9.44° C | 93% | 1006.2 hPa | 0.51 mm | 0.89 m/s, 326° | 92 W/m² | - |
| 1778071552 | 9.44° C | 93% | 1006.1 hPa | 0.51 mm | 0 m/s | 90 W/m² | - |
| 1778071492 | 9.44° C | 93% | 1006 hPa | 0.51 mm | 0.89 m/s, 331° | 97 W/m² | - |
| 1778071432 | 9.44° C | 93% | 1006.3 hPa | 0.51 mm | 0 m/s | 111 W/m² | - |
| 1778071372 | 9.44° C | 93% | 1006.2 hPa | 0.51 mm | 1.34 m/s, 39° | 122 W/m² | - |
| 1778071312 | 9.44° C | 93% | 1006.2 hPa | 0.25 mm | 0.45 m/s, 66° | 141 W/m² | - |
| 1778071252 | 9.44° C | 93% | 1006.2 hPa | 0.25 mm | 0.89 m/s, 357° | 148 W/m² | - |
| 1778071192 | 9.44° C | 93% | 1006.2 hPa | 0.25 mm | 1.79 m/s, 255° | 150 W/m² | - |
| 1778071131 | 9.44° C | 94% | 1006.1 hPa | 0.25 mm | 1.79 m/s, 19° | 174 W/m² | - |
| 1778071072 | 9.44° C | 94% | 1006.4 hPa | 0.25 mm | 0.45 m/s, 35° | 193 W/m² | - |
| 1778071012 | 9.44° C | 94% | 1006.3 hPa | 0.25 mm | 0 m/s | 178 W/m² | - |
| 1778070951 | 9.44° C | 94% | 1006.1 hPa | 0.25 mm | 0 m/s | 166 W/m² | - |
| 1778070892 | 9.44° C | 93% | 1006.2 hPa | 0.25 mm | 0.45 m/s, 11° | 164 W/m² | - |
| 1778070832 | 9.44° C | 93% | 1006.2 hPa | 0.25 mm | 0.45 m/s, 310° | 164 W/m² | - |
| 1778070772 | 9.44° C | 93% | 1006.2 hPa | 0.25 mm | 1.79 m/s, 302° | 156 W/m² | - |
| 1778070712 | 9.44° C | 93% | 1006.2 hPa | 0.25 mm | 0.45 m/s, 344° | 164 W/m² | - |
| 1778070652 | 9.44° C | 94% | 1006 hPa | 0.25 mm | 1.79 m/s, 318° | 154 W/m² | - |
| 1778070592 | 9.44° C | 94% | 1006.2 hPa | 0.25 mm | 0.45 m/s, 265° | 143 W/m² | - |
| 1778070534 | 9.44° C | 93% | 1006 hPa | 0.25 mm | 0.45 m/s, 9° | 159 W/m² | - |
| 1778070472 | 9.44° C | 93% | 1005.9 hPa | 0.25 mm | 0.89 m/s, 293° | 171 W/m² | - |
| 1778070412 | 9.44° C | 93% | 1006.1 hPa | 0.25 mm | 1.34 m/s, 40° | 192 W/m² | - |
| 1778070352 | 9.44° C | 93% | 1006.1 hPa | 0.25 mm | 1.79 m/s, 341° | 185 W/m² | - |
| 1778070293 | 9.44° C | 93% | 1006 hPa | 0.25 mm | 2.24 m/s, 345° | 157 W/m² | - |
| 1778070232 | 9.44° C | 93% | 1006 hPa | 0.25 mm | 0.89 m/s, 22° | 130 W/m² | - |
* Rain latest hour (hover to see other rain measurements)
** Current wind speed in m/s (hover to see current wind gust speed)